This demonstration page uses our WeatherBlox Daily Observations layout. Learn more.

Hourly Observations for September 18, 2016

Temp ( °F °C ) Dew Point ( °F °C ) Humidity (%) Winds ( mph kmh ) Pressure ( in mb ) Visibility ( mi km ) Precip ( " mm )
12:15 am 00:15 Clear 59 15.1 55 13 87 87 SW 7 11 29.94 1014 10 16.09344 0 0
12:35 am 00:35 Clear 59 14.9 55 12.7 87 87 SSW 5 7 29.94 1014 10 16.09344 0 0
12:55 am 00:55 Clear 58 14.5 55 12.6 88 88 SSW 5 7 29.94 1014 10 16.09344 0 0
1:15 am 01:15 Clear 57 13.8 54 12.2 90 90 SW 6 9 29.94 1014 10 16.09344 0 0
1:35 am 01:35 Clear 58 14.2 55 12.5 90 90 SSW 6 9 29.94 1014 10 16.09344 0 0
1:55 am 01:55 Clear 56 13.6 54 12.2 91 91 Calm 29.94 1014 10 16.09344 0 0
2:15 am 02:15 Clear 54 12.2 52 11.3 94 94 SSE 5 7 29.97 1015 10 16.09344 0 0
2:35 am 02:35 Clear 54 12 52 11.1 94 94 Calm 29.97 1015 10 16.09344 0 0
2:55 am 02:55 Clear 53 11.6 52 10.9 96 96 Calm 29.97 1015 10 16.09344 0 0
3:15 am 03:15 Clear 53 11.4 51 10.7 96 96 SSE 3 6 29.97 1015 10 16.09344 0 0
3:35 am 03:35 Clear 53 11.7 52 11 96 96 SSW 3 6 29.97 1015 10 16.09344 0 0
3:55 am 03:55 Partly Cloudy 53 11.5 51 10.8 96 96 S 5 7 29.97 1015 10 16.09344 0 0
4:15 am 04:15 Clear 53 11.9 52 11.2 96 96 SSW 3 6 29.97 1015 10 16.09344 0 0
4:35 am 04:35 Clear 54 12 52 11.3 96 96 SW 5 7 29.91 1013 10 16.09344 0 0
4:55 am 04:55 Clear 54 12 52 10.9 93 93 S 3 6 29.91 1013 10 16.09344 0 0
5:15 am 05:15 Partly Cloudy 53 11.6 51 10.7 94 94 SSW 3 6 29.94 1014 10 16.09344 0 0
5:35 am 05:35 Partly Cloudy 53 11.6 51 10.8 95 95 SW 5 7 29.94 1014 10 16.09344 0 0
5:55 am 05:55 Mostly Cloudy 55 12.8 53 11.7 93 93 SW 5 7 29.91 1013 10 16.09344 0 0
6:15 am 06:15 Cloudy 55 13 53 11.8 92 92 SW 5 7 29.91 1013 10 16.09344 0 0
6:35 am 06:35 Mostly Cloudy 55 13 53 11.5 91 91 SW 5 7 29.91 1013 10 16.09344 0 0
6:55 am 06:55 Partly Cloudy 55 12.6 53 11.5 93 93 SW 5 7 29.91 1013 10 16.09344 0 0
7:15 am 07:15 Clear 55 13 52 11.2 89 89 SW 6 9 29.91 1013 10 16.09344 0 0
7:35 am 07:35 Sunny 55 12.8 52 11 89 89 SW 3 6 29.91 1013 10 16.09344 0 0
7:55 am 07:55 Sunny 55 12.9 52 11 88 88 SSW 3 6 29.91 1013 10 16.09344 0 0
8:15 am 08:15 Sunny 57 13.9 52 11.2 84 84 SW 3 6 29.91 1013 10 16.09344 0 0
8:35 am 08:35 Sunny 59 14.8 54 12 83 83 SW 5 7 29.91 1013 10 16.09344 0 0
8:55 am 08:55 Sunny 61 15.9 55 12.7 81 81 SW 7 11 29.91 1013 10 16.09344 0 0
9:15 am 09:15 Sunny 62 16.9 56 13.5 81 81 SSW 8 13 29.88 1012 10 16.09344 0 0
9:35 am 09:35 Sunny 64 18 58 14.2 79 79 SSW 10 17 29.88 1012 10 16.09344 0 0
9:55 am 09:55 Sunny 65 18.1 58 14.3 79 79 SW 8 13 29.91 1013 10 16.09344 0 0
10:15 am 10:15 Sunny 65 18.1 58 14.5 80 80 SSW 9 15 29.91 1013 10 16.09344 0 0
10:35 am 10:35 Sunny 67 19.4 59 14.9 75 75 SSW 10 17 29.88 1012 10 16.09344 0 0
10:55 am 10:55 Sunny 68 20.1 59 14.9 72 72 SSW 12 19 29.88 1012 10 16.09344 0 0
11:15 am 11:15 Sunny 70 21.3 60 15.5 70 70 SSW 10 17 29.85 1011 10 16.09344 0 0
11:35 am 11:35 Sunny 71 21.5 59 15 67 67 SW 9 15 29.85 1011 10 16.09344 0 0
11:55 am 11:55 Sunny 72 22.3 59 14.9 63 63 SW 8 13 29.85 1011 10 16.09344 0 0
12:15 pm 12:15 Sunny 74 23.2 60 15.4 62 62 SSW 8 13 29.83 1010 10 16.09344 0 0
12:35 pm 12:35 Sunny 75 23.8 59 14.8 57 57 SW 8 13 29.83 1010 10 16.09344 0 0
12:55 pm 12:55 Sunny 76 24.4 58 14.6 54 54 SW 8 13 29.83 1010 10 16.09344 0 0
1:15 pm 13:15 Sunny 77 25 58 14.6 53 53 SW 7 11 29.8 1009 10 16.09344 0 0
1:35 pm 13:35 Sunny 77 25.1 57 13.9 50 50 SSW 14 22 29.8 1009 10 16.09344 0 0
1:55 pm 13:55 Sunny 79 26.1 57 14.1 48 48 SW 9 15 29.77 1008 10 16.09344 0 0
2:15 pm 14:15 Sunny 80 26.7 57 13.7 45 45 SSW 9 15 29.77 1008 10 16.09344 0 0
2:35 pm 14:35 Sunny 81 27.2 56 13.1 42 42 SSW 9 15 29.74 1007 10 16.09344 0 0
2:55 pm 14:55 Sunny 81 27.4 56 13.6 43 43 SW 8 13 29.74 1007 10 16.09344 0 0
3:15 pm 15:15 Sunny 82 28 55 12.7 39 39 SSW 10 17 29.74 1007 10 16.09344 0 0
3:35 pm 15:35 Sunny 83 28.6 54 12.2 36 36 SSW 14 22 29.74 1007 10 16.09344 0 0
3:55 pm 15:55 Sunny 84 28.9 55 12.6 37 37 SSW 13 20 29.74 1007 10 16.09344 0 0
4:15 pm 16:15 Sunny 85 29.4 54 12.2 35 35 SW 14 22 29.71 1006 10 16.09344 0 0
4:35 pm 16:35 Sunny 85 29.5 53 11.7 33 33 SSW 16 26 29.68 1005 10 16.09344 0 0
4:55 pm 16:55 Sunny 85 29.7 54 12.2 34 34 SSW 14 22 29.68 1005 10 16.09344 0 0
5:15 pm 17:15 Sunny 84 29.1 58 14.3 40 40 S 15 24 29.68 1005 10 16.09344 0 0
5:35 pm 17:35 Sunny 84 29 59 14.8 42 42 S 15 24 29.68 1005 10 16.09344 0 0
5:55 pm 17:55 Sunny 84 28.7 60 15.4 44 44 S 14 22 29.71 1006 10 16.09344 0 0
6:15 pm 18:15 Sunny 83 28.3 60 15.5 46 46 S 15 24 29.71 1006 10 16.09344 0 0
6:35 pm 18:35 Sunny 82 28 61 16 48 48 S 12 19 29.68 1005 10 16.09344 0 0
6:55 pm 18:55 Sunny 81 27.2 61 16.2 51 51 S 10 17 29.68 1005 10 16.09344 0 0
7:15 pm 19:15 Sunny 80 26.5 61 16 53 53 S 9 15 29.71 1006 10 16.09344 0 0
7:35 pm 19:35 Sunny 77 24.9 61 16.1 58 58 S 7 11 29.74 1007 10 16.09344 0 0
7:55 pm 19:55 Clear 74 23.6 62 16.4 64 64 S 5 7 29.74 1007 10 16.09344 0 0
8:15 pm 20:15 Clear 72 22 62 16.5 71 71 S 5 7 29.74 1007 10 16.09344 0 0
8:35 pm 20:35 Clear 71 21.5 62 16.5 73 73 S 6 9 29.8 1009 10 16.09344 0 0
8:55 pm 20:55 Clear 70 21.1 61 16.3 74 74 S 6 9 29.8 1009 10 16.09344 0 0
9:15 pm 21:15 Clear 70 21.2 62 16.5 75 75 S 6 9 29.8 1009 10 16.09344 0 0
9:35 pm 21:35 Clear 68 20.2 62 16.5 79 79 S 6 9 29.8 1009 10 16.09344 0 0
9:55 pm 21:55 Clear 69 20.6 61 16.2 76 76 S 7 11 29.8 1009 10 16.09344 0 0
10:15 pm 22:15 Clear 68 19.9 61 16.1 79 79 S 6 9 29.8 1009 10 16.09344 0 0
10:35 pm 22:35 Clear 67 19.5 61 16 80 80 S 6 9 29.8 1009 10 16.09344 0 0
10:55 pm 22:55 Clear 67 19.4 60 15.7 79 79 SSW 6 9 29.83 1010 10 16.09344 0 0
11:15 pm 23:15 Clear 67 19.3 60 15.7 80 80 SSW 9 15 29.83 1010 10 16.09344 0 0
11:35 pm 23:35 Clear 67 19.6 60 15.5 77 77 SSW 9 15 29.83 1010 10 16.09344 0 0
11:55 pm 23:55 Clear 68 20.1 60 15.5 75 75 SSW 10 17 29.83 1010 10 16.09344 0 0

Powered by AerisWeather